EZY656V EGGW-EGAC

Flight info

Callsign EZY656V
Flight time 0h 53m
Altitude 31000
Route OLNEY T420 TNT UL28 RODOL UM65 TENSO L603 BELOX DCT REMSI DCT NINEB M148 MAGEE
Aircraft A319/M-SDE2E3FGIJ1RWXYZ/LB1

Departure

Time 2026-04-26 10:39
Airport London Luton Airport (EGGW)

Arrival

Time 2026-04-26 11:33
Airport George Best Belfast City Airport (EGAC)
Time Latitude Longitude Altitude Speed Heading
2026-04-26 09:58 51.87925 -0.37924 0 ft 0 kts 100°
2026-04-26 10:09 51.87925 -0.37925 523 ft 0 kts 100°
2026-04-26 10:26 51.87926 -0.37934 523 ft 2 kts 100°
2026-04-26 10:26 51.87930 -0.37965 523 ft 3 kts 100°
2026-04-26 10:26 51.87932 -0.37992 523 ft 3 kts 122°
2026-04-26 10:26 51.87945 -0.38005 523 ft 3 kts 188°
2026-04-26 10:27 51.87963 -0.37998 523 ft 2 kts 208°
2026-04-26 10:27 51.87973 -0.37989 523 ft 3 kts 212°
2026-04-26 10:27 51.87989 -0.37970 523 ft 2 kts 218°
2026-04-26 10:27 51.87995 -0.37963 523 ft 0 kts 218°
2026-04-26 10:30 51.87993 -0.37965 523 ft 2 kts 218°
2026-04-26 10:31 51.87966 -0.37994 523 ft 7 kts 208°
2026-04-26 10:31 51.87916 -0.38015 523 ft 8 kts 185°
2026-04-26 10:31 51.87860 -0.37999 523 ft 9 kts 159°
2026-04-26 10:31 51.87811 -0.37937 523 ft 10 kts 129°
2026-04-26 10:32 51.87777 -0.37837 523 ft 11 kts 116°
2026-04-26 10:32 51.87744 -0.37722 523 ft 12 kts 114°
2026-04-26 10:32 51.87700 -0.37570 520 ft 16 kts 115°
2026-04-26 10:32 51.87625 -0.37466 523 ft 14 kts 165°
2026-04-26 10:33 51.87526 -0.37483 521 ft 16 kts 209°
2026-04-26 10:33 51.87487 -0.37633 523 ft 15 kts 254°
2026-04-26 10:33 51.87459 -0.37793 523 ft 15 kts 254°
2026-04-26 10:33 51.87431 -0.37957 524 ft 13 kts 255°
2026-04-26 10:34 51.87385 -0.38053 523 ft 10 kts 210°
2026-04-26 10:34 51.87353 -0.38078 523 ft 0 kts 206°
2026-04-26 10:35 51.87351 -0.38080 523 ft 0 kts 206°
2026-04-26 10:37 51.87347 -0.38083 523 ft 2 kts 206°
2026-04-26 10:38 51.87326 -0.38099 522 ft 5 kts 206°
2026-04-26 10:38 51.87292 -0.38113 523 ft 5 kts 183°
2026-04-26 10:38 51.87255 -0.38088 524 ft 7 kts 120°
2026-04-26 10:38 51.87261 -0.38010 524 ft 7 kts 74°
2026-04-26 10:39 51.87301 -0.37784 524 ft 55 kts 74°
2026-04-26 10:39 51.87474 -0.36779 524 ft 127 kts 74°
2026-04-26 10:39 51.87755 -0.35202 882 ft 150 kts 76°
2026-04-26 10:39 51.88048 -0.33580 1702 ft 150 kts 75°
2026-04-26 10:40 51.88351 -0.31871 2241 ft 168 kts 75°
2026-04-26 10:40 51.88694 -0.29929 2675 ft 191 kts 75°
2026-04-26 10:40 51.89141 -0.27752 3100 ft 217 kts 62°
2026-04-26 10:40 51.90314 -0.26061 3542 ft 244 kts 21°
2026-04-26 10:41 51.92054 -0.25933 4178 ft 263 kts 342°
2026-04-26 10:41 51.93563 -0.27598 5117 ft 269 kts 307°
2026-04-26 10:41 51.94220 -0.30418 6115 ft 272 kts 272°
2026-04-26 10:41 51.93997 -0.33457 7157 ft 273 kts 256°
2026-04-26 10:42 51.93508 -0.36444 8151 ft 276 kts 255°
2026-04-26 10:42 51.93255 -0.38466 8755 ft 279 kts 265°
2026-04-26 10:42 51.93791 -0.42578 9989 ft 285 kts 299°
2026-04-26 10:42 51.95068 -0.45006 10746 ft 296 kts 318°
2026-04-26 10:43 51.96697 -0.47260 11156 ft 317 kts 320°
2026-04-26 10:43 51.97857 -0.48817 11629 ft 324 kts 320°
2026-04-26 10:43 52.00193 -0.51915 12755 ft 331 kts 320°
2026-04-26 10:43 52.01402 -0.53521 13351 ft 334 kts 320°
2026-04-26 10:44 52.03795 -0.56720 14443 ft 339 kts 319°
2026-04-26 10:44 52.05025 -0.58374 14944 ft 342 kts 319°
2026-04-26 10:44 52.07465 -0.61668 15945 ft 346 kts 319°
2026-04-26 10:44 52.08717 -0.63365 16445 ft 348 kts 319°
2026-04-26 10:45 52.10585 -0.65905 17175 ft 352 kts 319°
2026-04-26 10:45 52.12470 -0.68472 17928 ft 355 kts 318°
2026-04-26 10:45 52.14373 -0.71067 18640 ft 359 kts 318°
2026-04-26 10:45 52.16298 -0.73694 19273 ft 362 kts 318°
2026-04-26 10:46 52.18234 -0.76341 19905 ft 366 kts 318°
2026-04-26 10:46 52.20192 -0.79022 20535 ft 369 kts 318°
2026-04-26 10:46 52.22163 -0.81726 21170 ft 372 kts 318°
2026-04-26 10:46 52.24158 -0.84453 21779 ft 376 kts 319°
2026-04-26 10:47 52.26340 -0.86860 22374 ft 382 kts 327°
2026-04-26 10:47 52.28620 -0.89117 22992 ft 385 kts 326°
2026-04-26 10:47 52.30922 -0.91395 23600 ft 389 kts 326°
2026-04-26 10:47 52.33246 -0.93698 24154 ft 392 kts 326°
2026-04-26 10:48 52.35588 -0.96022 24643 ft 395 kts 326°
2026-04-26 10:48 52.37950 -0.98371 25129 ft 398 kts 326°
2026-04-26 10:48 52.40323 -1.00738 25619 ft 401 kts 326°
2026-04-26 10:48 52.42712 -1.03126 26107 ft 404 kts 326°
2026-04-26 10:49 52.45115 -1.05540 26550 ft 406 kts 326°
2026-04-26 10:49 52.47530 -1.07974 27011 ft 409 kts 326°
2026-04-26 10:49 52.49964 -1.10429 27462 ft 412 kts 326°
2026-04-26 10:49 52.52382 -1.12863 27906 ft 415 kts 326°
2026-04-26 10:50 52.54851 -1.15350 28350 ft 418 kts 326°
2026-04-26 10:50 52.57333 -1.17853 28793 ft 420 kts 326°
2026-04-26 10:50 52.59836 -1.20374 29236 ft 423 kts 326°
2026-04-26 10:50 52.62354 -1.22914 29668 ft 426 kts 326°
2026-04-26 10:51 52.64888 -1.25479 30086 ft 429 kts 326°
2026-04-26 10:51 52.70000 -1.30662 30854 ft 434 kts 326°
2026-04-26 10:51 52.72575 -1.33276 31184 ft 436 kts 326°
2026-04-26 10:52 52.75153 -1.35894 31315 ft 431 kts 326°
2026-04-26 10:52 52.77651 -1.38428 31328 ft 413 kts 326°
2026-04-26 10:52 52.80063 -1.40880 31327 ft 401 kts 325°
2026-04-26 10:53 52.84768 -1.45706 31327 ft 396 kts 325°
2026-04-26 10:53 52.89448 -1.50535 31328 ft 396 kts 325°
2026-04-26 10:54 52.96473 -1.57769 31331 ft 397 kts 325°
2026-04-26 10:54 53.01159 -1.62600 31328 ft 396 kts 325°
2026-04-26 10:55 53.05842 -1.67447 31328 ft 397 kts 325°
2026-04-26 10:55 53.10522 -1.72307 31321 ft 396 kts 325°
2026-04-26 10:56 53.15191 -1.77169 31320 ft 397 kts 325°
2026-04-26 10:56 53.19873 -1.82067 31319 ft 397 kts 325°
2026-04-26 10:57 53.24557 -1.86968 31314 ft 397 kts 326°
2026-04-26 10:57 53.29348 -1.91601 31309 ft 398 kts 328°
2026-04-26 10:58 53.34205 -1.96084 31312 ft 399 kts 328°
2026-04-26 10:58 53.39050 -2.00616 31304 ft 399 kts 328°
2026-04-26 10:59 53.43876 -2.05218 31307 ft 399 kts 328°
2026-04-26 10:59 53.48699 -2.09843 31306 ft 399 kts 328°
2026-04-26 11:00 53.53494 -2.14439 31310 ft 400 kts 328°
2026-04-26 11:00 53.58105 -2.19579 31302 ft 396 kts 314°
2026-04-26 11:01 53.61392 -2.26887 31299 ft 390 kts 294°
2026-04-26 11:01 53.63411 -2.35347 31294 ft 389 kts 289°
2026-04-26 11:02 53.65367 -2.43860 31291 ft 390 kts 289°
2026-04-26 11:02 53.67319 -2.52403 31288 ft 391 kts 289°
2026-04-26 11:03 53.69264 -2.60970 31282 ft 391 kts 288°
2026-04-26 11:03 53.71199 -2.69556 31280 ft 391 kts 288°
2026-04-26 11:04 53.73143 -2.78170 31298 ft 393 kts 288°
2026-04-26 11:04 53.75085 -2.86816 31303 ft 394 kts 288°
2026-04-26 11:05 53.77017 -2.95468 31300 ft 394 kts 288°
2026-04-26 11:05 53.78938 -3.04133 31303 ft 394 kts 288°
2026-04-26 11:06 53.80859 -3.12797 31300 ft 393 kts 288°
2026-04-26 11:06 53.82776 -3.21464 31297 ft 393 kts 288°
2026-04-26 11:07 53.84683 -3.30129 31295 ft 393 kts 288°
2026-04-26 11:07 53.86579 -3.38799 31291 ft 393 kts 288°
2026-04-26 11:08 53.88467 -3.47485 31291 ft 393 kts 288°
2026-04-26 11:08 53.90350 -3.56171 31288 ft 392 kts 287°
2026-04-26 11:09 53.92214 -3.64804 31286 ft 392 kts 287°
2026-04-26 11:09 53.94086 -3.73496 31285 ft 392 kts 287°
2026-04-26 11:10 53.96026 -3.82332 30435 ft 407 kts 292°
2026-04-26 11:10 53.97403 -3.86562 29821 ft 408 kts 298°
2026-04-26 11:10 53.98821 -3.90687 29388 ft 401 kts 297°
2026-04-26 11:11 54.00184 -3.94717 28939 ft 396 kts 297°
2026-04-26 11:11 54.01557 -3.98817 28515 ft 392 kts 297°
2026-04-26 11:11 54.02874 -4.02771 28087 ft 388 kts 297°
2026-04-26 11:11 54.04214 -4.06801 27663 ft 385 kts 297°
2026-04-26 11:12 54.05512 -4.10695 27242 ft 382 kts 297°
2026-04-26 11:12 54.06939 -4.14564 26799 ft 381 kts 303°
2026-04-26 11:12 54.08469 -4.18227 26364 ft 378 kts 303°
2026-04-26 11:12 54.09965 -4.21816 25919 ft 376 kts 303°
2026-04-26 11:13 54.11474 -4.25450 25478 ft 374 kts 303°
2026-04-26 11:13 54.12968 -4.29068 25008 ft 373 kts 303°
2026-04-26 11:13 54.14456 -4.32683 24545 ft 371 kts 303°
2026-04-26 11:13 54.15939 -4.36285 24069 ft 370 kts 303°
2026-04-26 11:14 54.17419 -4.39875 23554 ft 369 kts 303°
2026-04-26 11:14 54.18894 -4.43447 23075 ft 367 kts 303°
2026-04-26 11:14 54.20357 -4.46991 22607 ft 364 kts 303°
2026-04-26 11:14 54.21339 -4.49380 22303 ft 362 kts 303°
2026-04-26 11:15 54.23242 -4.54024 21698 ft 358 kts 303°
2026-04-26 11:15 54.24662 -4.57502 21249 ft 356 kts 303°
2026-04-26 11:15 54.26071 -4.60963 20805 ft 353 kts 303°
2026-04-26 11:15 54.27473 -4.64407 20364 ft 351 kts 303°
2026-04-26 11:16 54.28868 -4.67828 19923 ft 349 kts 303°
2026-04-26 11:16 54.30254 -4.71229 19491 ft 348 kts 303°
2026-04-26 11:16 54.31630 -4.74619 19060 ft 346 kts 303°
2026-04-26 11:16 54.33001 -4.78004 18629 ft 345 kts 303°
2026-04-26 11:17 54.34367 -4.81375 18158 ft 343 kts 303°
2026-04-26 11:17 54.35723 -4.84720 17734 ft 341 kts 303°
2026-04-26 11:17 54.37068 -4.88047 17314 ft 338 kts 303°
2026-04-26 11:17 54.38404 -4.91352 16909 ft 336 kts 303°
2026-04-26 11:18 54.39726 -4.94635 16503 ft 334 kts 303°
2026-04-26 11:18 54.41037 -4.97912 16105 ft 332 kts 303°
2026-04-26 11:18 54.42338 -5.01172 15711 ft 330 kts 303°
2026-04-26 11:18 54.43637 -5.04417 15319 ft 329 kts 303°
2026-04-26 11:19 54.44934 -5.07646 14928 ft 328 kts 303°
2026-04-26 11:19 54.46232 -5.10853 14536 ft 327 kts 303°
2026-04-26 11:19 54.47531 -5.14055 14149 ft 326 kts 303°
2026-04-26 11:19 54.48823 -5.17246 13721 ft 324 kts 303°
2026-04-26 11:20 54.49862 -5.20648 13327 ft 319 kts 288°
2026-04-26 11:20 54.50235 -5.23078 13067 ft 316 kts 277°
2026-04-26 11:20 54.50218 -5.28063 12521 ft 311 kts 259°
2026-04-26 11:20 54.49891 -5.31724 12108 ft 309 kts 259°
2026-04-26 11:21 54.49567 -5.35374 11698 ft 308 kts 259°
2026-04-26 11:21 54.49248 -5.38999 11284 ft 306 kts 259°
2026-04-26 11:21 54.48929 -5.42612 10864 ft 305 kts 259°
2026-04-26 11:21 54.48608 -5.46215 10446 ft 305 kts 259°
2026-04-26 11:22 54.48285 -5.49815 9996 ft 305 kts 259°
2026-04-26 11:22 54.47966 -5.53371 9783 ft 296 kts 259°
2026-04-26 11:22 54.47658 -5.56812 9560 ft 287 kts 259°
2026-04-26 11:22 54.47356 -5.60184 9186 ft 284 kts 259°
2026-04-26 11:23 54.47055 -5.63527 8789 ft 282 kts 259°
2026-04-26 11:23 54.46754 -5.66854 8394 ft 281 kts 259°
2026-04-26 11:23 54.46457 -5.70116 8008 ft 279 kts 260°
2026-04-26 11:23 54.46150 -5.73478 7299 ft 284 kts 260°
2026-04-26 11:24 54.45712 -5.76788 6597 ft 284 kts 245°
2026-04-26 11:24 54.44793 -5.79731 6084 ft 276 kts 239°
2026-04-26 11:24 54.43660 -5.82258 5568 ft 269 kts 222°
2026-04-26 11:24 54.42249 -5.84310 5075 ft 263 kts 219°
2026-04-26 11:25 54.40845 -5.86273 4560 ft 258 kts 219°
2026-04-26 11:25 54.39468 -5.88189 4148 ft 250 kts 219°
2026-04-26 11:25 54.38158 -5.90045 3824 ft 242 kts 223°
2026-04-26 11:25 54.37232 -5.92384 3636 ft 233 kts 248°
2026-04-26 11:26 54.36979 -5.95074 3510 ft 229 kts 273°
2026-04-26 11:26 54.37415 -5.97673 3380 ft 230 kts 299°
2026-04-26 11:26 54.38346 -5.99904 3255 ft 230 kts 306°
2026-04-26 11:26 54.39309 -6.02095 3134 ft 230 kts 306°
2026-04-26 11:27 54.40266 -6.04287 3025 ft 229 kts 306°
2026-04-26 11:27 54.41259 -6.06421 3006 ft 230 kts 316°
2026-04-26 11:27 54.42646 -6.07751 3008 ft 232 kts 345°
2026-04-26 11:27 54.44240 -6.07754 3005 ft 227 kts 15°
2026-04-26 11:28 54.45580 -6.06565 3011 ft 211 kts 36°
2026-04-26 11:28 54.46751 -6.05172 3011 ft 200 kts 35°
2026-04-26 11:28 54.47874 -6.03843 3043 ft 188 kts 34°
2026-04-26 11:28 54.48923 -6.02600 2946 ft 179 kts 35°
2026-04-26 11:29 54.49936 -6.01398 2764 ft 175 kts 35°
2026-04-26 11:29 54.50932 -6.00215 2550 ft 175 kts 35°
2026-04-26 11:29 54.51941 -5.99018 2299 ft 176 kts 35°
2026-04-26 11:29 54.52931 -5.97841 2071 ft 168 kts 36°
2026-04-26 11:30 54.53556 -5.97098 1934 ft 160 kts 36°
2026-04-26 11:30 54.54424 -5.96065 1712 ft 145 kts 36°
2026-04-26 11:30 54.55231 -5.95104 1522 ft 138 kts 36°
2026-04-26 11:30 54.56015 -5.94170 1350 ft 137 kts 37°
2026-04-26 11:31 54.56781 -5.93258 1143 ft 133 kts 36°
2026-04-26 11:31 54.57532 -5.92362 954 ft 130 kts 35°
2026-04-26 11:31 54.58265 -5.91479 761 ft 127 kts 34°
2026-04-26 11:31 54.58980 -5.90607 616 ft 125 kts 34°
2026-04-26 11:32 54.59690 -5.89753 418 ft 123 kts 33°
2026-04-26 11:32 54.60395 -5.88938 245 ft 121 kts 32°
2026-04-26 11:32 54.61093 -5.88105 73 ft 121 kts 33°
2026-04-26 11:32 54.61745 -5.87329 19 ft 99 kts 34°
2026-04-26 11:33 54.62077 -5.86932 17 ft 32 kts 35°
2026-04-26 11:33 54.62249 -5.86726 20 ft 28 kts 34°
2026-04-26 11:33 54.62386 -5.86566 23 ft 18 kts 29°
2026-04-26 11:33 54.62476 -5.86525 20 ft 14 kts 44°
2026-04-26 11:34 54.62439 -5.86498 20 ft 9 kts 220°
2026-04-26 11:34 54.62383 -5.86567 23 ft 12 kts 214°
2026-04-26 11:34 54.62301 -5.86665 20 ft 16 kts 215°
2026-04-26 11:34 54.62203 -5.86783 19 ft 19 kts 214°
2026-04-26 11:35 54.62084 -5.86923 17 ft 22 kts 214°
2026-04-26 11:35 54.61954 -5.87079 16 ft 24 kts 215°
2026-04-26 11:35 54.61841 -5.87170 18 ft 11 kts 166°
2026-04-26 11:35 54.61791 -5.87066 20 ft 11 kts 124°
2026-04-26 11:36 54.61739 -5.86990 21 ft 10 kts 174°
2026-04-26 11:36 54.61674 -5.87052 22 ft 11 kts 214°
2026-04-26 11:36 54.61616 -5.87121 21 ft 7 kts 211°
2026-04-26 11:36 54.61578 -5.87111 21 ft 3 kts 161°
2026-04-26 11:37 54.61554 -5.87097 21 ft 3 kts 161°
2026-04-26 11:37 54.61543 -5.87091 21 ft 1 kts 161°
2026-04-26 11:37 54.61541 -5.87089 21 ft 0 kts 161°